Location: Asni�res
(49.1337°N, 2.3555°E)
Time: 01:07:45
(UTC+00:00)

Cosmos 1980 Rocket - Pass Details

Date: 16 October 2021
Orbit: 828 x 851 km, 71.0° (Epoch: 06 December)

Event Time Altitude Azimuth Distance (km) Brightness Sun altitude
Rises 18:58:56 0° 214° (SSW) 3,379 5.7 -20.4°
Reaches altitude 10° 19:01:22 10° 216° (SW) 2,452 4.9 -20.8°
Maximum altitude 19:06:59 71° 300° (WNW) 895 2.4 -21.7°
Drops below altitude 10° 19:12:41 10° 25° (NNE) 2,482 4.5 -22.6°
Sets 19:15:10 0° 28° (NNE) 3,424 5.2 -23.0°
